Time,TemperatureF,DewpointF,PressureIn,WindDirection,WindDirectionDegrees,WindSpeedMPH,WindSpeedGustMPH,Humidity,HourlyPrecipIn,Conditions,Clouds,dailyrainin,SoftwareType,DateUTC
2013-05-07 00:03:00,43.5,40.8,29.90,South,183,2.0,4.0,90,0.00,,,0.00,WeatherTracker,2013-05-07 07:03:00,
2013-05-07 00:08:00,43.6,40.9,29.90,South,183,3.0,4.0,90,0.00,,,0.00,WeatherTracker,2013-05-07 07:08:00,
2013-05-07 00:13:00,43.6,40.6,29.91,South,181,2.0,4.0,89,0.00,,,0.00,WeatherTracker,2013-05-07 07:13:00,
2013-05-07 00:18:00,43.5,40.8,29.91,South,179,2.0,4.0,90,0.00,,,0.00,WeatherTracker,2013-05-07 07:18:00,
2013-05-07 00:23:00,43.3,40.6,29.91,South,179,2.0,4.0,90,0.00,,,0.00,WeatherTracker,2013-05-07 07:23:00,
2013-05-07 00:28:00,43.2,40.8,29.91,South,178,2.0,0.0,91,0.00,,,0.00,WeatherTracker,2013-05-07 07:28:00,
2013-05-07 00:33:00,43.2,40.8,29.91,South,178,0.0,3.0,91,0.00,,,0.00,WeatherTracker,2013-05-07 07:33:00,
2013-05-07 00:38:00,43.1,40.7,29.91,South,178,1.0,3.0,91,0.00,,,0.00,WeatherTracker,2013-05-07 07:38:00,
2013-05-07 00:43:00,43.1,40.7,29.91,South,178,1.0,2.0,91,0.00,,,0.00,WeatherTracker,2013-05-07 07:43:00,
2013-05-07 00:48:00,43.1,40.7,29.91,South,178,1.0,3.0,91,0.00,,,0.00,WeatherTracker,2013-05-07 07:48:00,
2013-05-07 00:53:00,43.1,40.9,29.91,South,178,2.0,3.0,92,0.00,,,0.00,WeatherTracker,2013-05-07 07:53:00,
2013-05-07 00:58:00,43.1,40.7,29.91,South,178,0.0,2.0,91,0.00,,,0.00,WeatherTracker,2013-05-07 07:58:00,
2013-05-07 01:03:00,43.1,40.7,29.91,South,178,0.0,2.0,91,0.00,,,0.00,WeatherTracker,2013-05-07 08:03:00,
2013-05-07 01:08:00,43.1,40.9,29.91,South,178,0.0,2.0,92,0.00,,,0.00,WeatherTracker,2013-05-07 08:08:00,
2013-05-07 01:13:00,43.1,40.9,29.91,South,178,3.0,3.0,92,0.00,,,0.00,WeatherTracker,2013-05-07 08:13:00,
2013-05-07 01:18:00,43.1,40.9,29.92,South,178,2.0,3.0,92,0.00,,,0.00,WeatherTracker,2013-05-07 08:18:00,
2013-05-07 01:23:00,43.1,40.9,29.91,South,178,1.0,4.0,92,0.00,,,0.00,WeatherTracker,2013-05-07 08:23:00,
2013-05-07 01:28:00,43.1,40.9,29.92,South,178,3.0,4.0,92,0.00,,,0.00,WeatherTracker,2013-05-07 08:28:00,
2013-05-07 01:33:00,43.1,40.9,29.92,South,178,2.0,3.0,92,0.01,,,0.01,WeatherTracker,2013-05-07 08:33:00,
2013-05-07 01:39:00,43.1,40.7,29.92,South,178,2.0,3.0,91,0.01,,,0.01,WeatherTracker,2013-05-07 08:39:00,
2013-05-07 01:44:00,43.2,40.8,29.92,South,178,2.0,3.0,91,0.01,,,0.01,WeatherTracker,2013-05-07 08:44:00,
2013-05-07 01:49:00,43.2,40.5,29.92,South,178,2.0,3.0,90,0.01,,,0.01,WeatherTracker,2013-05-07 08:49:00,
2013-05-07 01:54:00,43.3,40.6,29.91,South,178,3.0,3.0,90,0.01,,,0.01,WeatherTracker,2013-05-07 08:54:00,
2013-05-07 01:59:00,43.4,40.7,29.91,South,178,2.0,3.0,90,0.01,,,0.01,WeatherTracker,2013-05-07 08:59:00,
2013-05-07 02:04:00,43.4,40.7,29.91,South,178,0.0,3.0,90,0.01,,,0.01,WeatherTracker,2013-05-07 09:04:00,
2013-05-07 02:09:00,43.4,40.7,29.91,South,178,0.0,3.0,90,0.01,,,0.01,WeatherTracker,2013-05-07 09:09:00,
2013-05-07 02:14:00,43.4,40.7,29.91,South,178,1.0,2.0,90,0.01,,,0.01,WeatherTracker,2013-05-07 09:14:00,
2013-05-07 02:19:00,43.4,40.7,29.91,South,178,1.0,2.0,90,0.01,,,0.01,WeatherTracker,2013-05-07 09:19:00,
2013-05-07 02:24:00,43.4,41.0,29.91,South,178,0.0,2.0,91,0.01,,,0.01,WeatherTracker,2013-05-07 09:24:00,
2013-05-07 02:29:00,43.3,40.9,29.91,South,178,0.0,2.0,91,0.01,,,0.01,WeatherTracker,2013-05-07 09:29:00,
2013-05-07 02:34:00,43.3,40.6,29.91,South,178,0.0,1.0,90,0.00,,,0.01,WeatherTracker,2013-05-07 09:34:00,
2013-05-07 02:39:00,43.3,40.6,29.91,South,176,2.0,0.0,90,0.00,,,0.01,WeatherTracker,2013-05-07 09:39:00,
2013-05-07 02:44:00,43.2,40.8,29.91,SSE,157,3.0,3.0,91,0.00,,,0.01,WeatherTracker,2013-05-07 09:44:00,
2013-05-07 02:49:00,43.3,40.0,29.91,SE,143,3.0,5.0,88,0.00,,,0.01,WeatherTracker,2013-05-07 09:49:00,
2013-05-07 02:54:00,43.3,40.0,29.91,SE,143,2.0,5.0,88,0.00,,,0.01,WeatherTracker,2013-05-07 09:54:00,
2013-05-07 02:59:00,43.3,39.7,29.91,SE,143,3.0,4.0,87,0.00,,,0.01,WeatherTracker,2013-05-07 09:59:00,
2013-05-07 03:05:00,43.3,40.0,29.91,SE,143,0.0,3.0,88,0.00,,,0.01,WeatherTracker,2013-05-07 10:05:00,
2013-05-07 03:10:00,43.2,40.2,29.91,SE,143,0.0,3.0,89,0.00,,,0.01,WeatherTracker,2013-05-07 10:10:00,
2013-05-07 03:15:00,43.2,39.9,29.91,SE,143,1.0,2.0,88,0.00,,,0.01,WeatherTracker,2013-05-07 10:15:00,
2013-05-07 03:20:00,43.1,40.1,29.91,SE,144,1.0,2.0,89,0.00,,,0.01,WeatherTracker,2013-05-07 10:20:00,
2013-05-07 03:25:00,43.0,40.0,29.91,SE,144,0.0,2.0,89,0.00,,,0.01,WeatherTracker,2013-05-07 10:25:00,
2013-05-07 03:30:00,43.0,40.3,29.91,SE,144,0.0,2.0,90,0.00,,,0.01,WeatherTracker,2013-05-07 10:30:00,
2013-05-07 03:35:00,42.9,39.9,29.91,SE,143,0.0,1.0,89,0.00,,,0.01,WeatherTracker,2013-05-07 10:35:00,
2013-05-07 03:40:00,42.8,40.1,29.91,SE,143,0.0,0.0,90,0.00,,,0.01,WeatherTracker,2013-05-07 10:40:00,
2013-05-07 03:45:00,42.7,40.0,29.91,SE,144,0.0,0.0,90,0.00,,,0.01,WeatherTracker,2013-05-07 10:45:00,
2013-05-07 03:50:00,42.6,39.6,29.91,SE,144,0.0,2.0,89,0.00,,,0.01,WeatherTracker,2013-05-07 10:50:00,
2013-05-07 03:55:00,42.6,39.3,29.91,SE,143,0.0,2.0,88,0.00,,,0.01,WeatherTracker,2013-05-07 10:55:00,
2013-05-07 04:00:00,42.6,39.6,29.91,SE,144,1.0,2.0,89,0.00,,,0.01,WeatherTracker,2013-05-07 11:00:00,
2013-05-07 04:05:00,42.5,39.5,29.91,SE,144,2.0,2.0,89,0.00,,,0.01,WeatherTracker,2013-05-07 11:05:00,
2013-05-07 04:10:00,42.3,39.3,29.91,SE,144,2.0,2.0,89,0.00,,,0.01,WeatherTracker,2013-05-07 11:10:00,
2013-05-07 04:15:00,42.2,39.2,29.91,SE,144,1.0,3.0,89,0.00,,,0.01,WeatherTracker,2013-05-07 11:15:00,
2013-05-07 04:20:00,42.0,39.0,29.91,SE,144,0.0,3.0,89,0.00,,,0.01,WeatherTracker,2013-05-07 11:20:00,
2013-05-07 04:25:00,41.9,38.9,29.91,SE,144,0.0,2.0,89,0.00,,,0.01,WeatherTracker,2013-05-07 11:25:00,
2013-05-07 04:30:00,41.8,38.8,29.91,SE,144,2.0,0.0,89,0.00,,,0.01,WeatherTracker,2013-05-07 11:30:00,
2013-05-07 04:35:00,41.8,39.1,29.91,SE,144,2.0,3.0,90,0.00,,,0.01,WeatherTracker,2013-05-07 11:35:00,
2013-05-07 04:40:00,41.7,39.0,29.91,SE,144,1.0,3.0,90,0.00,,,0.01,WeatherTracker,2013-05-07 11:40:00,
2013-05-07 04:45:00,41.6,38.9,29.91,SE,144,1.0,2.0,90,0.00,,,0.01,WeatherTracker,2013-05-07 11:45:00,
2013-05-07 04:50:00,41.6,39.2,29.91,SE,144,0.0,2.0,91,0.00,,,0.01,WeatherTracker,2013-05-07 11:50:00,
2013-05-07 04:56:00,41.6,39.2,29.91,SE,144,0.0,2.0,91,0.00,,,0.01,WeatherTracker,2013-05-07 11:56:00,
2013-05-07 05:01:00,41.6,39.2,29.91,SE,144,2.0,2.0,91,0.00,,,0.01,WeatherTracker,2013-05-07 12:01:00,
2013-05-07 05:06:00,41.5,39.1,29.91,SE,144,2.0,3.0,91,0.00,,,0.01,WeatherTracker,2013-05-07 12:06:00,
2013-05-07 05:11:00,41.5,39.1,29.91,SE,144,2.0,3.0,91,0.00,,,0.01,WeatherTracker,2013-05-07 12:11:00,
2013-05-07 05:16:00,41.5,39.1,29.92,SE,144,2.0,3.0,91,0.00,,,0.01,WeatherTracker,2013-05-07 12:16:00,
2013-05-07 05:21:00,41.6,39.2,29.91,SE,144,1.0,2.0,91,0.00,,,0.01,WeatherTracker,2013-05-07 12:21:00,
2013-05-07 05:26:00,41.8,39.4,29.92,SE,144,0.0,2.0,91,0.00,,,0.01,WeatherTracker,2013-05-07 12:26:00,
2013-05-07 05:31:00,41.8,39.4,29.92,SE,144,0.0,2.0,91,0.00,,,0.01,WeatherTracker,2013-05-07 12:31:00,
2013-05-07 05:36:00,41.8,39.4,29.92,SE,144,1.0,1.0,91,0.00,,,0.01,WeatherTracker,2013-05-07 12:36:00,
2013-05-07 05:41:00,41.7,39.0,29.92,SE,144,0.0,1.0,90,0.00,,,0.01,WeatherTracker,2013-05-07 12:41:00,
2013-05-07 05:46:00,41.6,38.9,29.92,SE,144,0.0,1.0,90,0.00,,,0.01,WeatherTracker,2013-05-07 12:46:00,
2013-05-07 05:51:00,41.7,39.3,29.92,SE,144,0.0,0.0,91,0.00,,,0.01,WeatherTracker,2013-05-07 12:51:00,
2013-05-07 05:56:00,41.8,39.4,29.92,SE,144,1.0,1.0,91,0.00,,,0.01,WeatherTracker,2013-05-07 12:56:00,
2013-05-07 06:01:00,41.9,39.5,29.92,SE,144,0.0,2.0,91,0.00,,,0.01,WeatherTracker,2013-05-07 13:01:00,
2013-05-07 06:06:00,41.9,39.5,29.92,SE,144,0.0,2.0,91,0.00,,,0.01,WeatherTracker,2013-05-07 13:06:00,
2013-05-07 06:11:00,41.9,39.5,29.92,SE,144,0.0,1.0,91,0.00,,,0.01,WeatherTracker,2013-05-07 13:11:00,
2013-05-07 06:16:00,41.9,39.5,29.93,SE,144,0.0,2.0,91,0.00,,,0.01,WeatherTracker,2013-05-07 13:16:00,
2013-05-07 06:21:00,42.0,39.6,29.93,SE,144,0.0,2.0,91,0.00,,,0.01,WeatherTracker,2013-05-07 13:21:00,
2013-05-07 06:26:00,42.1,39.7,29.93,SE,144,0.0,0.0,91,0.00,,,0.01,WeatherTracker,2013-05-07 13:26:00,
2013-05-07 06:31:00,42.2,39.8,29.93,SE,144,0.0,0.0,91,0.00,,,0.01,WeatherTracker,2013-05-07 13:31:00,
2013-05-07 06:36:00,42.2,40.0,29.93,SE,144,0.0,0.0,92,0.00,,,0.01,WeatherTracker,2013-05-07 13:36:00,
2013-05-07 06:41:00,42.3,40.1,29.93,SE,143,1.0,0.0,92,0.00,,,0.01,WeatherTracker,2013-05-07 13:41:00,
2013-05-07 06:46:00,42.2,40.0,29.94,SE,143,0.0,2.0,92,0.00,,,0.01,WeatherTracker,2013-05-07 13:46:00,
2013-05-07 06:51:00,42.3,40.1,29.94,SE,143,2.0,2.0,92,0.00,,,0.01,WeatherTracker,2013-05-07 13:51:00,
2013-05-07 06:57:00,42.3,40.1,29.94,SE,143,1.0,2.0,92,0.00,,,0.01,WeatherTracker,2013-05-07 13:57:00,
2013-05-07 07:01:00,42.3,40.1,29.94,SE,143,0.0,2.0,92,0.01,,,0.02,WeatherTracker,2013-05-07 14:01:00,
2013-05-07 07:07:00,42.3,40.1,29.94,SE,143,1.0,2.0,92,0.01,,,0.02,WeatherTracker,2013-05-07 14:07:00,
2013-05-07 07:12:00,42.4,40.2,29.94,SE,144,0.0,2.0,92,0.01,,,0.02,WeatherTracker,2013-05-07 14:12:00,
2013-05-07 07:17:00,42.5,40.3,29.94,SE,144,0.0,2.0,92,0.01,,,0.02,WeatherTracker,2013-05-07 14:17:00,
2013-05-07 07:22:00,42.5,40.3,29.94,SE,144,0.0,2.0,92,0.01,,,0.02,WeatherTracker,2013-05-07 14:22:00,
2013-05-07 07:27:00,42.6,40.4,29.94,SE,144,1.0,2.0,92,0.01,,,0.02,WeatherTracker,2013-05-07 14:27:00,
2013-05-07 07:32:00,42.6,40.2,29.94,SE,143,1.0,2.0,91,0.01,,,0.02,WeatherTracker,2013-05-07 14:32:00,
2013-05-07 07:37:00,42.7,40.3,29.94,SE,144,2.0,3.0,91,0.01,,,0.02,WeatherTracker,2013-05-07 14:37:00,
2013-05-07 07:42:00,42.8,40.4,29.94,SE,144,1.0,3.0,91,0.01,,,0.02,WeatherTracker,2013-05-07 14:42:00,
2013-05-07 07:47:00,42.9,40.5,29.94,SE,144,2.0,3.0,91,0.01,,,0.02,WeatherTracker,2013-05-07 14:47:00,
2013-05-07 07:52:00,43.0,40.6,29.94,SE,144,1.0,2.0,91,0.01,,,0.02,WeatherTracker,2013-05-07 14:52:00,
2013-05-07 07:57:00,43.1,40.4,29.95,SE,144,0.0,3.0,90,0.01,,,0.02,WeatherTracker,2013-05-07 14:57:00,
2013-05-07 08:02:00,43.1,40.1,29.95,SE,144,1.0,3.0,89,0.00,,,0.02,WeatherTracker,2013-05-07 15:02:00,
2013-05-07 08:07:00,43.2,39.9,29.95,SE,144,0.0,2.0,88,0.00,,,0.02,WeatherTracker,2013-05-07 15:07:00,
2013-05-07 08:12:00,43.4,40.1,29.95,SE,144,0.0,2.0,88,0.00,,,0.02,WeatherTracker,2013-05-07 15:12:00,
2013-05-07 08:17:00,43.5,39.9,29.95,SE,144,0.0,1.0,87,0.00,,,0.02,WeatherTracker,2013-05-07 15:17:00,
2013-05-07 08:22:00,43.6,39.7,29.95,SE,144,0.0,1.0,86,0.00,,,0.02,WeatherTracker,2013-05-07 15:22:00,
2013-05-07 08:27:00,43.8,39.9,29.95,SE,144,0.0,0.0,86,0.00,,,0.02,WeatherTracker,2013-05-07 15:27:00,
2013-05-07 08:32:00,44.0,39.8,29.95,SE,144,0.0,1.0,85,0.00,,,0.02,WeatherTracker,2013-05-07 15:32:00,
2013-05-07 08:38:00,44.2,39.7,29.95,SE,144,0.0,2.0,84,0.00,,,0.02,WeatherTracker,2013-05-07 15:38:00,
2013-05-07 08:43:00,44.3,39.5,29.95,SE,144,2.0,2.0,83,0.00,,,0.02,WeatherTracker,2013-05-07 15:43:00,
2013-05-07 08:47:00,44.4,39.6,29.95,SE,144,0.0,2.0,83,0.00,,,0.02,WeatherTracker,2013-05-07 15:47:00,
2013-05-07 08:53:00,44.6,39.8,29.96,SE,144,0.0,2.0,83,0.00,,,0.02,WeatherTracker,2013-05-07 15:53:00,
2013-05-07 08:58:00,44.7,39.9,29.96,SE,144,2.0,2.0,83,0.00,,,0.02,WeatherTracker,2013-05-07 15:58:00,
2013-05-07 09:03:00,44.7,40.2,29.96,SE,144,0.0,2.0,84,0.00,,,0.02,WeatherTracker,2013-05-07 16:03:00,
2013-05-07 09:08:00,45.0,40.5,29.96,SE,143,0.0,2.0,84,0.00,,,0.02,WeatherTracker,2013-05-07 16:08:00,
2013-05-07 09:13:00,45.2,40.3,29.96,SE,143,0.0,2.0,83,0.00,,,0.02,WeatherTracker,2013-05-07 16:13:00,
2013-05-07 09:18:00,45.5,40.6,29.96,SE,144,2.0,2.0,83,0.00,,,0.02,WeatherTracker,2013-05-07 16:18:00,
2013-05-07 09:23:00,45.6,40.7,29.96,SE,144,2.0,2.0,83,0.00,,,0.02,WeatherTracker,2013-05-07 16:23:00,
2013-05-07 09:28:00,45.5,40.0,29.96,SE,144,0.0,2.0,81,0.00,,,0.02,WeatherTracker,2013-05-07 16:28:00,
2013-05-07 09:33:00,45.6,40.1,29.96,SE,142,3.0,3.0,81,0.00,,,0.02,WeatherTracker,2013-05-07 16:33:00,
2013-05-07 09:38:00,45.7,40.2,29.96,SE,142,0.0,4.0,81,0.00,,,0.02,WeatherTracker,2013-05-07 16:38:00,
2013-05-07 09:43:00,45.8,40.0,29.96,SE,142,0.0,4.0,80,0.00,,,0.02,WeatherTracker,2013-05-07 16:43:00,
2013-05-07 09:48:00,46.0,39.9,29.96,SE,143,0.0,0.0,79,0.00,,,0.02,WeatherTracker,2013-05-07 16:48:00,
2013-05-07 09:53:00,46.3,41.4,29.96,SE,143,0.0,1.0,83,0.01,,,0.03,WeatherTracker,2013-05-07 16:53:00,
2013-05-07 09:58:00,46.4,40.9,29.96,SE,143,1.0,2.0,81,0.01,,,0.03,WeatherTracker,2013-05-07 16:58:00,
2013-05-07 10:03:00,46.1,40.3,29.96,SE,143,2.0,3.0,80,0.01,,,0.03,WeatherTracker,2013-05-07 17:03:00,
2013-05-07 10:08:00,46.0,40.8,29.96,SE,143,0.0,3.0,82,0.01,,,0.03,WeatherTracker,2013-05-07 17:08:00,
2013-05-07 10:14:00,46.3,41.7,29.96,SE,143,2.0,3.0,84,0.01,,,0.03,WeatherTracker,2013-05-07 17:14:00,
2013-05-07 10:19:00,46.5,41.6,29.96,SE,142,1.0,3.0,83,0.01,,,0.03,WeatherTracker,2013-05-07 17:19:00,
2013-05-07 10:24:00,46.6,41.1,29.96,SE,142,0.0,3.0,81,0.01,,,0.03,WeatherTracker,2013-05-07 17:24:00,
2013-05-07 10:29:00,46.8,41.0,29.96,SE,142,1.0,3.0,80,0.01,,,0.03,WeatherTracker,2013-05-07 17:29:00,
2013-05-07 10:34:00,46.9,40.4,29.96,SE,142,1.0,4.0,78,0.01,,,0.03,WeatherTracker,2013-05-07 17:34:00,
2013-05-07 10:39:00,47.2,42.0,29.96,SE,142,2.0,4.0,82,0.01,,,0.03,WeatherTracker,2013-05-07 17:39:00,
2013-05-07 10:44:00,47.5,41.3,29.96,SE,139,5.0,5.0,79,0.01,,,0.03,WeatherTracker,2013-05-07 17:44:00,
2013-05-07 10:49:00,47.6,42.1,29.96,SE,139,2.0,5.0,81,0.01,,,0.03,WeatherTracker,2013-05-07 17:49:00,
2013-05-07 10:54:00,47.8,40.3,29.96,SE,126,2.0,6.0,75,0.00,,,0.03,WeatherTracker,2013-05-07 17:54:00,
2013-05-07 10:59:00,48.1,41.6,29.96,ESE,121,3.0,6.0,78,0.00,,,0.03,WeatherTracker,2013-05-07 17:59:00,
2013-05-07 11:04:00,48.6,41.4,29.96,ESE,123,3.0,6.0,76,0.00,,,0.03,WeatherTracker,2013-05-07 18:04:00,
2013-05-07 11:09:00,49.1,40.8,29.95,SE,124,0.0,6.0,73,0.00,,,0.03,WeatherTracker,2013-05-07 18:09:00,
2013-05-07 11:14:00,49.2,41.3,29.95,ESE,118,1.0,5.0,74,0.00,,,0.03,WeatherTracker,2013-05-07 18:14:00,
2013-05-07 11:19:00,49.2,40.6,29.95,East,101,4.0,7.0,72,0.00,,,0.03,WeatherTracker,2013-05-07 18:19:00,
2013-05-07 11:24:00,49.2,40.6,29.95,East,99,5.0,7.0,72,0.00,,,0.03,WeatherTracker,2013-05-07 18:24:00,
2013-05-07 11:29:00,49.6,42.0,29.96,East,96,5.0,7.0,75,0.00,,,0.03,WeatherTracker,2013-05-07 18:29:00,
2013-05-07 11:34:00,50.0,41.0,29.96,East,95,1.0,6.0,71,0.00,,,0.03,WeatherTracker,2013-05-07 18:34:00,
2013-05-07 11:39:00,50.3,41.3,29.96,ENE,63,1.0,6.0,71,0.00,,,0.03,WeatherTracker,2013-05-07 18:39:00,
2013-05-07 11:44:00,50.7,41.6,29.96,ENE,66,2.0,5.0,71,0.00,,,0.03,WeatherTracker,2013-05-07 18:44:00,
2013-05-07 11:49:00,51.3,42.6,29.95,ENE,65,3.0,5.0,72,0.00,,,0.03,WeatherTracker,2013-05-07 18:49:00,
2013-05-07 11:54:00,51.5,42.4,29.95,ENE,74,1.0,6.0,71,0.00,,,0.03,WeatherTracker,2013-05-07 18:54:00,
2013-05-07 11:59:00,51.7,41.5,29.95,ESE,104,3.0,6.0,68,0.00,,,0.03,WeatherTracker,2013-05-07 18:59:00,
2013-05-07 12:04:00,54.0,42.9,29.95,NE,53,2.0,7.0,66,0.00,,,0.03,WeatherTracker,2013-05-07 19:04:00,
2013-05-07 12:09:00,53.9,42.8,29.94,NE,44,3.0,7.0,66,0.00,,,0.03,WeatherTracker,2013-05-07 19:09:00,
2013-05-07 12:15:00,54.1,41.8,29.94,NE,41,1.0,5.0,63,0.00,,,0.03,WeatherTracker,2013-05-07 19:15:00,
2013-05-07 12:20:00,54.7,41.5,29.94,NNE,16,0.0,5.0,61,0.00,,,0.03,WeatherTracker,2013-05-07 19:20:00,
2013-05-07 12:25:00,55.4,42.2,29.94,NNE,17,1.0,4.0,61,0.00,,,0.03,WeatherTracker,2013-05-07 19:25:00,
2013-05-07 12:30:00,55.9,42.6,29.93,NW,326,2.0,6.0,61,0.00,,,0.03,WeatherTracker,2013-05-07 19:30:00,
2013-05-07 12:35:00,56.3,45.1,29.93,South,173,3.0,6.0,66,0.00,,,0.03,WeatherTracker,2013-05-07 19:35:00,
2013-05-07 12:40:00,55.1,41.9,29.93,SE,137,5.0,5.0,61,0.00,,,0.03,WeatherTracker,2013-05-07 19:40:00,
2013-05-07 12:45:00,55.0,41.8,29.93,SE,126,2.0,6.0,61,0.00,,,0.03,WeatherTracker,2013-05-07 19:45:00,
2013-05-07 12:50:00,55.5,42.3,29.92,SE,126,2.0,6.0,61,0.00,,,0.03,WeatherTracker,2013-05-07 19:50:00,
2013-05-07 12:55:00,54.5,41.3,29.92,ESE,115,2.0,7.0,61,0.00,,,0.03,WeatherTracker,2013-05-07 19:55:00,
2013-05-07 13:00:00,53.9,42.4,29.92,East,101,1.0,7.0,65,0.00,,,0.03,WeatherTracker,2013-05-07 20:00:00,
2013-05-07 13:05:00,54.9,42.1,29.92,ENE,76,0.0,5.0,62,0.00,,,0.03,WeatherTracker,2013-05-07 20:05:00,
2013-05-07 13:10:00,55.5,41.0,29.92,East,84,0.0,5.0,58,0.00,,,0.03,WeatherTracker,2013-05-07 20:10:00,
2013-05-07 13:15:00,56.0,39.6,29.92,SE,141,5.0,10.0,54,0.00,,,0.03,WeatherTracker,2013-05-07 20:15:00,
2013-05-07 13:20:00,55.8,39.9,29.91,SW,235,10.0,10.0,55,0.00,,,0.03,WeatherTracker,2013-05-07 20:20:00,
2013-05-07 13:25:00,56.1,39.7,29.91,SSE,155,0.0,11.0,54,0.00,,,0.03,WeatherTracker,2013-05-07 20:25:00,
2013-05-07 13:30:00,56.5,41.5,29.91,SW,217,6.0,11.0,57,0.00,,,0.03,WeatherTracker,2013-05-07 20:30:00,
2013-05-07 13:35:00,56.8,39.4,29.91,West,268,9.0,11.0,52,0.00,,,0.03,WeatherTracker,2013-05-07 20:35:00,
2013-05-07 13:40:00,56.8,38.9,29.91,WSW,245,4.0,13.0,51,0.00,,,0.03,WeatherTracker,2013-05-07 20:40:00,
2013-05-07 13:45:00,56.4,39.5,29.91,SSE,155,4.0,13.0,53,0.00,,,0.03,WeatherTracker,2013-05-07 20:45:00,
2013-05-07 13:50:00,56.4,38.0,29.91,WSW,242,0.0,9.0,50,0.00,,,0.03,WeatherTracker,2013-05-07 20:50:00,
2013-05-07 13:55:00,57.4,39.9,29.91,WSW,254,0.0,7.0,52,0.00,,,0.03,WeatherTracker,2013-05-07 20:55:00,
2013-05-07 14:00:00,57.7,39.2,29.91,West,276,2.0,7.0,50,0.00,,,0.03,WeatherTracker,2013-05-07 21:00:00,
2013-05-07 14:05:00,58.5,40.4,29.91,NE,38,5.0,7.0,51,0.00,,,0.03,WeatherTracker,2013-05-07 21:05:00,
2013-05-07 14:10:00,59.0,38.8,29.90,West,267,0.0,11.0,47,0.00,,,0.03,WeatherTracker,2013-05-07 21:10:00,
2013-05-07 14:15:00,58.0,38.9,29.90,NW,304,6.0,11.0,49,0.00,,,0.03,WeatherTracker,2013-05-07 21:15:00,
2013-05-07 14:20:00,58.2,39.6,29.90,NNE,24,10.0,11.0,50,0.00,,,0.03,WeatherTracker,2013-05-07 21:20:00,
2013-05-07 14:25:00,58.7,39.1,29.90,NE,46,0.0,11.0,48,0.00,,,0.03,WeatherTracker,2013-05-07 21:25:00,
2013-05-07 14:30:00,58.6,39.0,29.90,NE,47,5.0,10.0,48,0.00,,,0.03,WeatherTracker,2013-05-07 21:30:00,
2013-05-07 14:35:00,58.5,40.9,29.90,North,5,5.0,11.0,52,0.00,,,0.03,WeatherTracker,2013-05-07 21:35:00,
2013-05-07 14:40:00,58.7,38.0,29.90,SW,232,5.0,12.0,46,0.00,,,0.03,WeatherTracker,2013-05-07 21:40:00,
2013-05-07 14:45:00,58.0,41.0,29.90,SE,131,8.0,15.0,53,0.00,,,0.03,WeatherTracker,2013-05-07 21:45:00,
2013-05-07 14:51:00,57.1,37.1,29.90,South,172,3.0,15.0,47,0.00,,,0.03,WeatherTracker,2013-05-07 21:51:00,
2013-05-07 14:56:00,56.9,39.0,29.90,SW,225,4.0,10.0,51,0.00,,,0.03,WeatherTracker,2013-05-07 21:56:00,
2013-05-07 15:01:00,57.8,38.8,29.90,SW,215,4.0,10.0,49,0.00,,,0.03,WeatherTracker,2013-05-07 22:01:00,
2013-05-07 15:06:00,57.4,38.4,29.90,WSW,256,9.0,13.0,49,0.00,,,0.03,WeatherTracker,2013-05-07 22:06:00,
2013-05-07 15:11:00,57.5,40.5,29.90,WSW,257,16.0,16.0,53,0.00,,,0.03,WeatherTracker,2013-05-07 22:11:00,
2013-05-07 15:16:00,57.0,39.5,29.91,SW,219,10.0,16.0,52,0.00,,,0.03,WeatherTracker,2013-05-07 22:16:00,
2013-05-07 15:21:00,56.8,38.9,29.91,SW,227,14.0,16.0,51,0.00,,,0.03,WeatherTracker,2013-05-07 22:21:00,
2013-05-07 15:26:00,56.4,39.0,29.91,SSW,211,8.0,17.0,52,0.00,,,0.03,WeatherTracker,2013-05-07 22:26:00,
2013-05-07 15:31:00,56.2,38.8,29.91,WSW,240,11.0,18.0,52,0.00,,,0.03,WeatherTracker,2013-05-07 22:31:00,
2013-05-07 15:36:00,55.7,39.3,29.91,SW,234,16.0,21.0,54,0.00,,,0.03,WeatherTracker,2013-05-07 22:36:00,
2013-05-07 15:41:00,55.4,39.5,29.91,WSW,255,12.0,21.0,55,0.00,,,0.03,WeatherTracker,2013-05-07 22:41:00,
2013-05-07 15:46:00,55.1,37.3,29.91,SW,234,11.0,19.0,51,0.00,,,0.03,WeatherTracker,2013-05-07 22:46:00,
2013-05-07 15:51:00,55.3,38.5,29.90,WSW,254,9.0,19.0,53,0.00,,,0.03,WeatherTracker,2013-05-07 22:51:00,
2013-05-07 15:56:00,55.0,40.0,29.90,SW,218,12.0,17.0,57,0.00,,,0.03,WeatherTracker,2013-05-07 22:56:00,
2013-05-07 16:01:00,54.7,40.2,29.90,SW,236,6.0,19.0,58,0.00,,,0.03,WeatherTracker,2013-05-07 23:01:00,
2013-05-07 16:06:00,54.5,38.2,29.90,SSW,200,14.0,19.0,54,0.00,,,0.03,WeatherTracker,2013-05-07 23:06:00,
2013-05-07 16:11:00,54.3,38.5,29.90,WSW,247,14.0,16.0,55,0.00,,,0.03,WeatherTracker,2013-05-07 23:11:00,
2013-05-07 16:16:00,54.1,39.2,29.90,SSW,207,8.0,17.0,57,0.00,,,0.03,WeatherTracker,2013-05-07 23:16:00,
2013-05-07 16:21:00,54.1,38.3,29.90,West,263,7.0,17.0,55,0.00,,,0.03,WeatherTracker,2013-05-07 23:21:00,
2013-05-07 16:26:00,54.3,39.8,29.89,SSW,199,10.0,13.0,58,0.00,,,0.03,WeatherTracker,2013-05-07 23:26:00,
2013-05-07 16:31:00,54.3,38.9,29.89,WSW,238,7.0,12.0,56,0.00,,,0.03,WeatherTracker,2013-05-07 23:31:00,
2013-05-07 16:36:00,54.2,37.9,29.90,SW,227,8.0,12.0,54,0.00,,,0.03,WeatherTracker,2013-05-07 23:36:00,
2013-05-07 16:41:00,54.1,37.8,29.90,SSW,198,3.0,17.0,54,0.00,,,0.03,WeatherTracker,2013-05-07 23:41:00,
2013-05-07 16:46:00,54.2,37.4,29.90,WSW,240,4.0,17.0,53,0.00,,,0.03,WeatherTracker,2013-05-07 23:46:00,
2013-05-07 16:51:00,54.3,39.4,29.90,SW,223,2.0,10.0,57,0.00,,,0.03,WeatherTracker,2013-05-07 23:51:00,
2013-05-07 16:56:00,54.1,38.3,29.90,West,272,5.0,12.0,55,0.00,,,0.03,WeatherTracker,2013-05-07 23:56:00,
2013-05-07 17:01:00,54.1,38.3,29.91,WSW,249,3.0,12.0,55,0.00,,,0.03,WeatherTracker,2013-05-08 00:01:00,
2013-05-07 17:07:00,54.0,37.7,29.91,West,265,3.0,7.0,54,0.00,,,0.03,WeatherTracker,2013-05-08 00:07:00,
2013-05-07 17:12:00,54.0,38.7,29.91,SSW,198,2.0,7.0,56,0.00,,,0.03,WeatherTracker,2013-05-08 00:12:00,
2013-05-07 17:17:00,53.7,38.4,29.91,West,263,9.0,9.0,56,0.00,,,0.03,WeatherTracker,2013-05-08 00:17:00,
2013-05-07 17:22:00,52.9,39.0,29.92,West,264,6.0,12.0,59,0.00,,,0.03,WeatherTracker,2013-05-08 00:22:00,
2013-05-07 17:27:00,52.2,40.0,29.92,WNW,286,3.0,15.0,63,0.00,,,0.03,WeatherTracker,2013-05-08 00:27:00,
2013-05-07 17:32:00,51.8,40.4,29.92,WNW,286,0.0,15.0,65,0.00,,,0.03,WeatherTracker,2013-05-08 00:32:00,
2013-05-07 17:37:00,51.9,41.7,29.92,NW,315,0.0,10.0,68,0.00,,,0.03,WeatherTracker,2013-05-08 00:37:00,
2013-05-07 17:42:00,52.1,41.5,29.92,NW,314,0.0,3.0,67,0.01,,,0.04,WeatherTracker,2013-05-08 00:42:00,
2013-05-07 17:47:00,52.1,42.2,29.92,NW,319,3.0,3.0,69,0.01,,,0.04,WeatherTracker,2013-05-08 00:47:00,
2013-05-07 17:52:00,52.0,41.8,29.93,ENE,77,3.0,4.0,68,0.01,,,0.04,WeatherTracker,2013-05-08 00:52:00,
2013-05-07 17:57:00,52.1,42.6,29.93,ENE,61,2.0,4.0,70,0.01,,,0.04,WeatherTracker,2013-05-08 00:57:00,
2013-05-07 18:02:00,52.0,42.1,29.93,NE,36,3.0,4.0,69,0.01,,,0.04,WeatherTracker,2013-05-08 01:02:00,
2013-05-07 18:07:00,51.7,42.2,29.93,NNE,22,2.0,5.0,70,0.01,,,0.04,WeatherTracker,2013-05-08 01:07:00,
2013-05-07 18:12:00,51.6,41.8,29.93,North,355,1.0,5.0,69,0.01,,,0.04,WeatherTracker,2013-05-08 01:12:00,
2013-05-07 18:17:00,51.4,41.9,29.93,North,355,0.0,3.0,70,0.01,,,0.04,WeatherTracker,2013-05-08 01:17:00,
2013-05-07 18:22:00,51.3,42.2,29.93,North,360,0.0,3.0,71,0.01,,,0.04,WeatherTracker,2013-05-08 01:22:00,
2013-05-07 18:27:00,51.1,42.0,29.93,North,360,2.0,3.0,71,0.02,,,0.05,WeatherTracker,2013-05-08 01:27:00,
2013-05-07 18:32:00,50.8,43.2,29.93,ESE,113,7.0,7.0,75,0.02,,,0.05,WeatherTracker,2013-05-08 01:32:00,
2013-05-07 18:37:00,50.1,42.5,29.93,ESE,106,6.0,10.0,75,0.01,,,0.05,WeatherTracker,2013-05-08 01:37:00,
2013-05-07 18:42:00,50.1,42.5,29.93,East,96,7.0,10.0,75,0.01,,,0.05,WeatherTracker,2013-05-08 01:42:00,
2013-05-07 18:47:00,50.0,43.7,29.92,East,101,8.0,10.0,79,0.01,,,0.05,WeatherTracker,2013-05-08 01:47:00,
2013-05-07 18:52:00,49.1,42.2,29.92,SSE,155,3.0,10.0,77,0.01,,,0.05,WeatherTracker,2013-05-08 01:52:00,
2013-05-07 18:57:00,48.9,42.7,29.92,SSE,159,6.0,10.0,79,0.01,,,0.05,WeatherTracker,2013-05-08 01:57:00,
2013-05-07 19:02:00,48.6,42.4,29.92,SE,146,5.0,10.0,79,0.01,,,0.05,WeatherTracker,2013-05-08 02:02:00,
2013-05-07 19:07:00,48.6,42.7,29.93,SSE,148,2.0,7.0,80,0.01,,,0.05,WeatherTracker,2013-05-08 02:07:00,
2013-05-07 19:13:00,48.6,42.4,29.93,SSE,153,5.0,7.0,79,0.01,,,0.05,WeatherTracker,2013-05-08 02:13:00,
2013-05-07 19:18:00,48.6,42.7,29.93,SE,140,6.0,10.0,80,0.01,,,0.05,WeatherTracker,2013-05-08 02:18:00,
2013-05-07 19:23:00,48.6,43.0,29.93,SE,142,0.0,10.0,81,0.01,,,0.05,WeatherTracker,2013-05-08 02:23:00,
2013-05-07 19:28:00,48.5,43.3,29.93,SE,141,1.0,10.0,82,0.00,,,0.05,WeatherTracker,2013-05-08 02:28:00,
2013-05-07 19:33:00,48.4,43.2,29.93,SE,139,4.0,6.0,82,0.00,,,0.05,WeatherTracker,2013-05-08 02:33:00,
2013-05-07 19:38:00,48.3,42.4,29.93,SE,138,2.0,5.0,80,0.00,,,0.05,WeatherTracker,2013-05-08 02:38:00,
2013-05-07 19:43:00,48.3,42.4,29.94,SE,138,4.0,5.0,80,0.00,,,0.05,WeatherTracker,2013-05-08 02:43:00,
2013-05-07 19:48:00,48.3,43.1,29.94,SE,138,0.0,4.0,82,0.00,,,0.05,WeatherTracker,2013-05-08 02:48:00,
2013-05-07 19:53:00,48.3,43.4,29.94,SE,138,0.0,4.0,83,0.00,,,0.05,WeatherTracker,2013-05-08 02:53:00,
2013-05-07 19:58:00,48.1,43.5,29.94,SE,139,0.0,2.0,84,0.01,,,0.06,WeatherTracker,2013-05-08 02:58:00,
2013-05-07 20:03:00,48.0,43.4,29.94,SE,138,2.0,2.0,84,0.01,,,0.06,WeatherTracker,2013-05-08 03:03:00,
2013-05-07 20:08:00,47.9,43.0,29.94,SE,137,3.0,4.0,83,0.01,,,0.06,WeatherTracker,2013-05-08 03:08:00,
2013-05-07 20:13:00,47.9,42.7,29.95,SE,137,0.0,4.0,82,0.01,,,0.06,WeatherTracker,2013-05-08 03:13:00,
2013-05-07 20:18:00,47.9,43.3,29.95,SE,138,2.0,4.0,84,0.01,,,0.06,WeatherTracker,2013-05-08 03:18:00,
2013-05-07 20:23:00,47.7,43.1,29.95,SE,140,1.0,3.0,84,0.01,,,0.06,WeatherTracker,2013-05-08 03:23:00,
2013-05-07 20:28:00,47.7,43.1,29.95,SE,141,2.0,3.0,84,0.01,,,0.06,WeatherTracker,2013-05-08 03:28:00,
2013-05-07 20:33:00,47.7,43.1,29.95,SE,140,0.0,3.0,84,0.02,,,0.07,WeatherTracker,2013-05-08 03:33:00,
2013-05-07 20:38:00,47.6,43.0,29.95,SE,140,0.0,2.0,84,0.02,,,0.07,WeatherTracker,2013-05-08 03:38:00,
2013-05-07 20:43:00,47.4,43.1,29.95,SE,140,1.0,2.0,85,0.02,,,0.07,WeatherTracker,2013-05-08 03:43:00,
2013-05-07 20:49:00,47.3,43.0,29.96,SE,139,1.0,2.0,85,0.02,,,0.07,WeatherTracker,2013-05-08 03:49:00,
2013-05-07 20:54:00,47.1,42.8,29.96,SE,139,1.0,2.0,85,0.02,,,0.07,WeatherTracker,2013-05-08 03:54:00,
2013-05-07 20:59:00,47.0,42.7,29.96,SE,139,0.0,3.0,85,0.01,,,0.07,WeatherTracker,2013-05-08 03:59:00,
2013-05-07 21:01:00,47.0,42.7,29.96,SE,140,0.0,3.0,85,0.02,,,0.08,WeatherTracker,2013-05-08 04:01:00,
2013-05-07 21:02:00,47.0,42.7,29.97,SE,140,0.0,3.0,85,0.02,,,0.08,WeatherTracker,2013-05-08 04:02:00,
2013-05-07 21:07:00,47.0,42.4,29.97,SE,141,1.0,3.0,84,0.02,,,0.08,WeatherTracker,2013-05-08 04:07:00,
2013-05-07 21:12:00,46.9,42.3,29.97,SE,141,2.0,3.0,84,0.03,,,0.09,WeatherTracker,2013-05-08 04:12:00,
2013-05-07 21:17:00,46.8,42.5,29.97,SE,141,2.0,3.0,85,0.05,,,0.11,WeatherTracker,2013-05-08 04:17:00,
2013-05-07 21:22:00,46.5,42.2,29.98,SE,141,3.0,3.0,85,0.07,,,0.13,WeatherTracker,2013-05-08 04:22:00,
2013-05-07 21:27:00,46.3,42.6,29.98,SE,142,3.0,5.0,87,0.07,,,0.13,WeatherTracker,2013-05-08 04:27:00,
2013-05-07 21:32:00,46.2,42.5,29.98,SE,141,0.0,5.0,87,0.07,,,0.14,WeatherTracker,2013-05-08 04:32:00,
2013-05-07 21:37:00,46.1,42.4,29.98,SE,141,0.0,4.0,87,0.07,,,0.14,WeatherTracker,2013-05-08 04:37:00,
2013-05-07 21:42:00,46.0,42.6,29.98,SE,141,0.0,2.0,88,0.08,,,0.15,WeatherTracker,2013-05-08 04:42:00,
2013-05-07 21:47:00,46.0,42.6,29.98,SE,141,0.0,0.0,88,0.08,,,0.15,WeatherTracker,2013-05-08 04:47:00,
2013-05-07 21:52:00,45.9,42.8,29.98,SE,141,0.0,0.0,89,0.08,,,0.15,WeatherTracker,2013-05-08 04:52:00,
2013-05-07 21:57:00,45.8,42.7,29.98,SE,141,0.0,0.0,89,0.08,,,0.15,WeatherTracker,2013-05-08 04:57:00,
2013-05-07 22:02:00,45.8,42.7,29.98,SE,141,0.0,0.0,89,0.08,,,0.16,WeatherTracker,2013-05-08 05:02:00,
2013-05-07 22:07:00,45.8,42.7,29.98,SE,141,0.0,0.0,89,0.08,,,0.16,WeatherTracker,2013-05-08 05:07:00,
2013-05-07 22:12:00,45.7,42.6,29.99,SE,141,0.0,0.0,89,0.06,,,0.16,WeatherTracker,2013-05-08 05:12:00,
2013-05-07 22:17:00,45.7,42.6,29.99,SE,141,0.0,0.0,89,0.05,,,0.16,WeatherTracker,2013-05-08 05:17:00,
2013-05-07 22:22:00,45.8,43.0,29.99,SE,141,0.0,0.0,90,0.03,,,0.16,WeatherTracker,2013-05-08 05:22:00,
2013-05-07 22:27:00,45.8,43.0,29.99,SE,141,0.0,0.0,90,0.03,,,0.16,WeatherTracker,2013-05-08 05:27:00,
2013-05-07 22:32:00,45.8,43.0,29.99,SE,141,0.0,0.0,90,0.02,,,0.16,WeatherTracker,2013-05-08 05:32:00,
2013-05-07 22:37:00,45.8,43.0,29.99,SE,141,0.0,0.0,90,0.02,,,0.16,WeatherTracker,2013-05-08 05:37:00,
2013-05-07 22:42:00,45.9,43.4,29.99,SE,141,0.0,0.0,91,0.01,,,0.16,WeatherTracker,2013-05-08 05:42:00,
2013-05-07 22:47:00,45.8,43.3,29.99,SE,141,0.0,0.0,91,0.01,,,0.16,WeatherTracker,2013-05-08 05:47:00,
2013-05-07 22:52:00,45.8,43.3,29.99,SE,141,0.0,0.0,91,0.01,,,0.16,WeatherTracker,2013-05-08 05:52:00,
2013-05-07 22:57:00,45.8,43.3,30.00,SE,141,0.0,0.0,91,0.01,,,0.16,WeatherTracker,2013-05-08 05:57:00,
2013-05-07 23:02:00,45.8,43.0,29.99,SE,141,0.0,0.0,90,0.01,,,0.17,WeatherTracker,2013-05-08 06:02:00,
2013-05-07 23:08:00,45.8,43.0,29.99,SE,141,0.0,0.0,90,0.01,,,0.17,WeatherTracker,2013-05-08 06:08:00,
2013-05-07 23:13:00,45.8,43.3,29.99,SE,141,0.0,0.0,91,0.01,,,0.17,WeatherTracker,2013-05-08 06:13:00,
2013-05-07 23:18:00,45.8,43.3,30.00,SE,141,0.0,0.0,91,0.02,,,0.18,WeatherTracker,2013-05-08 06:18:00,
2013-05-07 23:23:00,45.8,43.3,29.99,SE,141,0.0,0.0,91,0.02,,,0.18,WeatherTracker,2013-05-08 06:23:00,
2013-05-07 23:28:00,45.7,43.2,29.99,SE,141,0.0,0.0,91,0.02,,,0.18,WeatherTracker,2013-05-08 06:28:00,
2013-05-07 23:33:00,45.7,43.2,29.99,SE,141,0.0,0.0,91,0.02,,,0.18,WeatherTracker,2013-05-08 06:33:00,
2013-05-07 23:38:00,45.6,43.1,29.99,SE,141,0.0,1.0,91,0.02,,,0.18,WeatherTracker,2013-05-08 06:38:00,
2013-05-07 23:43:00,45.5,43.0,29.99,SE,141,0.0,1.0,91,0.02,,,0.18,WeatherTracker,2013-05-08 06:43:00,
2013-05-07 23:48:00,45.3,42.8,30.00,SE,141,0.0,1.0,91,0.02,,,0.18,WeatherTracker,2013-05-08 06:48:00,
2013-05-07 23:53:00,45.3,42.8,30.00,SE,141,0.0,0.0,91,0.02,,,0.18,WeatherTracker,2013-05-08 06:53:00,
2013-05-07 23:58:00,45.2,42.7,30.00,SE,141,0.0,0.0,91,0.02,,,0.18,WeatherTracker,2013-05-08 06:58:00,